AQI (33)

Current Conditions for Foresthill, CA. Mostly Cloudy, Light Rain   
Visibility: 3 miles
Cloud ht: 100 ft
Space WX Alerts: CONTINUED ALERT:  Electron 2MeV Integral Flux exceeded 1000pfu ( Latest Alert ) - Issue Time: 2019 May 16 1742 UTC

  Summary / Temperature 

Current Temperature
46.3°F
7.9°C
(24/hr Ago)
52.6°F
(Apparent temp)
44.6°F
Cool
Wind Chill Graphs
46.4°F 

46.5°F/ 8.1°C
 --- Virtual Temp: 48.6°F ---

 Temp Rate:

 24/hr Difference:

 Avg Running Temp:

 Todays High:

 Todays Low:

 Y-days High:

 Y-days Low:

 Todays WChill:

 Y-days WChill:

 Evapotranspiration:

+0.5°F/hr 

-6.3°F

45.5°F

46.4°F 2:53pm

41.2°F 4:02am

54.8°F 1:47pm

37.2°F 5:52am

32.1°F 2:40am

30.7°F 6:11am

0.029 in

115' Above Ground

 Temperature:

 6'AGL VRS 115'AGL:

 Avg Running Temp:

 Humidity:

 Todays High:

 Todays Low:

 Y-days High:

 Y-days Low:

45.0°F 

-1.3°F

44.8°F

93% 

46.0°F 12:57pm

41.0°F 2:11am

55.0°F 1:36pm

38.0°F 4:27am

Temp & Humidity Graphs

  Wind 

Wind Speed

 Calm

Gusting to

 11.0 mph

Calm

121°  

Calm

 Avg speed:

 Wind Run:

 Peak Gust:

  1.0 mph 

48.0 miles

  22.0 mph 12:19am

  Almanac  

Moon age: 17 days,18 hours,53 minutes,90%

Waning Gibbous
90%
Illuminated
17 days in cycle

 Moonrise:

 Moonset:

 Sunrise:

 Sunset:

 Solar Noon:

11:14pm

8:06am

5:44am

8:13pm

1:00pm

1min 42s more daylight tomorrow 

  Solar Radiation 

(Current Solar)
  69 W/m2 (7%)
(Todays High)
 1074 W/m2@1:41pm
Feels like: 49.3°F in the sun

Rain

 Rain Today:

 Rain Rate (/hr):

 Rain last hour:

 Rain Yesterday:

 This Month:

 Season Total:

1 Day Since Last Rain Day

0.76 in

0.024 in

0.03 in

0.00 in

4.19 in

51.59 in

Updated Time

Updated: 5/21/19  3:02pm

(Updated  sec ago)

Humidity & Barometer

 Humidity:

 Wetbulb:

 Dew Point:

 Barometer:

96% 

45.7°F 

45.2°F 

29.869 inHg 

 Baro Trend:  Falling Slowly 
Northern Calif
Preparedness
Fire 
Level 

    UV Index  

(Current UV)
0.0  None
(Todays High) @ 1:42pm
7.0   High

National Weather Service Forecast

This
Afternoon
This Afternoon: Showers, Thunderstorms
Showers, T-Storms
Tonight

Tonight: Rain Showers
Rain Showers
Wednesday

Wednesday: Slight Chance Rain Showers
Slight Chance Rain Showers
Wednesday
Night
Wednesday Night: Slight Chance Rain Showers then Mostly Cloudy
Slight Chance Rain Showers
Thursday

Thursday: Chance Showers, Thunderstorms
Chance Showers, T-Storms
Thursday
Night
Thursday Night: Partly Cloudy
Partly Cloudy
Hi 49 °F Lo 40 °F Hi 62 °F Lo 47 °F Hi 63 °F Lo 48 °F

Foresthill Probe 2 Stats  
Foresthill Probe 2: is located on Thomas Street
at 3000 feet. The main Foresthill Weather site
is located on Melody ln at the 2860 foot elevation

Light Air
46.1°F
7.8°C
Temp Rate:
+0.1°F
Calm
Gusting to
4.0 mph
(Humidity)
95%
Wind from E
96°  E
Updated: 21/05/19 - 14:56:46
 Todays High: 47.2°F 12:52
 Todays Low: 40.8°F 03:22
 Rain Today: 0.76 in
 Season Total: 56.00 in

Foresthill Wx: Monthly,Yearly, Highs and Lows 

Foresthill  
This Weather Data is coming from the main Foresthill
Weather site located on Melody ln at the 2860 foot
elevation
Not Foresthill Probe 2
Weather Data
Month
  High
Month
  Low
Year
High
Year
Low
Temp 78.6°F
5/10/19
37.2°F
5/20/19
82.2°F
4/26/19
24.5°F
2/18/19
Humidity 100%
5/16/19
14%
5/10/19
100%
1/9/19
14%
4/22/19
Heat Index 77.0°F
5/10/19
43.5°F
5/20/19
81.6°F
4/25/19
30.1°F
2/22/19
Wind Chill 78.6°F
5/10/19
30.7°F
5/20/19
82.2°F
4/26/19
11.5°F
2/11/19
Wind Gust 36 mph
5/15/19
0 mph
5/1/19
48 mph
2/27/19
0 mph
1/1/19
Barometer 30.18 in
5/17/19
29.67 in
5/16/19
30.54 in
1/23/19
29.37 in
2/14/19
ET 0.22 in
5/10/19
0.00 in
5/1/19
0.22 in
4/26/19
0.00 in
1/1/19
Dew Point 56.7°F
5/8/19
25.1°F
5/10/19
57.3°F
4/24/19
7.7°F
1/1/19
Pacific Satellite US Radar Satellite Imagery Sacramento,CA.  (click to enlarge)
NWS Weather Forecast - Summary
Updated: Tuesday, May 21, 2019 - 4:00am PDT
Current Interstate Highway Conditions for I-80 & US-50

[I 80: IN THE SAN FRANCISCO BAY AREA - SOLANO CO]
  A high wind advisory is in effect at the san francisco-oakland bay bridge /in san francisco/ (san francisco,alameda co) - travel is not recommended for campers, trailers or permit loads

[I 80: IN THE NORTHERN CALIFORNIA AREA & SIERRA NEVADA]
no traffic restrictions are reported for this area.

[US 50: IN THE SACRAMENTO VALLEY & THE LAKE TAHOE BASIN]
  1-way controlled traffic at various locations from echo summit to 2. 9 mi west of the jct of sr 89 /at johnson pass rd/ (EL DORADO CO) from 6:00am to 7:00pm monday thru thursday thru 5/23/19 - due to construction
NWS Weather Forecast: This Afternoon and Tonight (Updated: Tue, 21-May-2019 3:07am PDT)
This
Afternoon
This Afternoon: Showers, Thunderstorms
Showers, T-Storms

Hi 49 °F
NWS forecast: Showers and thunderstorms. Cloudy, with a high near 49. South wind 6 to 9 mph. Chance of precipitation is 90%. New rainfall amounts between a half and three quarters of an inch possible.
Tonight

Tonight: Rain Showers
Rain Showers

Lo 40 °F
NWS forecast: Rain showers before 5am. Mostly cloudy, with a low around 40. Southeast wind 2 to 6 mph. Chance of precipitation is 80%. New rainfall amounts between a tenth and quarter of an inch possible.
YR.NO 10 Day Weather forecast
Last update: 05/21/2019 @ 00:34
Next update: 05/21/2019 @ 13:00
Provided by: 22
      Temperature Precipitation Pressure Wind  
Today
05/21/2019
13:00 18:00 45°F 0.28 in 29.86 inHg Light breeze from southeast 6 mph
  18:00 00:00 45°F 0.29 in 29.78 inHg Light breeze from southeast 4 mph
    (Click to enlarge)
meteogram

    Forecast for next 9 days

      Temperature Precip Pressure Wind  
Wednesday
05/22/2019
00:00 06:00 39°F   29.81 inHg Light air from east 2 mph
  06:00 12:00 34°F   29.82 inHg Light breeze from east-northeast 4 mph
  12:00 18:00 59°F   29.74 inHg Light breeze from west-northwest 6 mph
  18:00 00:00 61°F   29.70 inHg Light breeze from west-northwest 6 mph
      Temperature Precip Pressure Wind  
Thursday
05/23/2019
00:00 06:00 41°F   29.77 inHg Light breeze from east-northeast 6 mph
  06:00 12:00 43°F   29.77 inHg Light breeze from east-northeast 4 mph
  12:00 18:00 59°F 0.14 in 29.83 inHg Light breeze from west-southwest 5 mph
  17:00 23:00 57°F   29.87 inHg Light air from north-northwest 2 mph
  23:00 05:00 45°F   29.95 inHg Light air from east-northeast 3 mph
      Temperature Precip Pressure Wind  
Friday
05/24/2019
05:00 11:00 41°F   29.97 inHg Light breeze from east-northeast 6 mph
  11:00 17:00 63°F 0.03 in 29.96 inHg Light breeze from west-southwest 5 mph
  17:00 23:00 61°F 0.02 in 29.88 inHg Light breeze from southwest 6 mph
  23:00 05:00 50°F 0.19 in 29.84 inHg Light breeze from east 5 mph
      Temperature Precip Pressure Wind  
Saturday
05/25/2019
05:00 11:00 48°F 0.13 in 29.77 inHg Light breeze from southeast 6 mph
  11:00 17:00 55°F 0.09 in 29.79 inHg Light breeze from south 7 mph
  17:00 23:00 55°F 0.04 in 29.78 inHg Light breeze from south-southeast 5 mph
  23:00 05:00 46°F 0.25 in 29.86 inHg Light air from southwest 3 mph
      Temperature Precip Pressure Wind  
Sunday
05/26/2019
05:00 11:00 41°F 0.08 in 29.89 inHg Light air from southwest 2 mph
  11:00 17:00 50°F 0.04 in 29.95 inHg Light breeze from south-southwest 5 mph
  17:00 23:00 52°F   29.93 inHg Light air from west-northwest 3 mph
  23:00 05:00 45°F   29.98 inHg Light breeze from northeast 5 mph
      Temperature Precip Pressure Wind  
Monday
05/27/2019
05:00 11:00 37°F   29.96 inHg Light air from east-northeast 3 mph
  11:00 17:00 59°F   29.98 inHg Light breeze from west 6 mph
  17:00 23:00 59°F   29.97 inHg Light breeze from southwest 7 mph
  23:00 05:00 50°F   30.07 inHg Light breeze from south-southeast 5 mph
      Temperature Precip Pressure Wind  
Tuesday
05/28/2019
05:00 11:00 46°F 0.08 in 30.05 inHg Light breeze from south-southwest 5 mph
  11:00 17:00 50°F 0.02 in 30.09 inHg Light breeze from south 6 mph
  17:00 23:00 55°F   30.02 inHg Light breeze from west-southwest 5 mph
  23:00 05:00 46°F   30.01 inHg Light air from north-northeast 3 mph
      Temperature Precip Pressure Wind  
Wednesday
05/29/2019
05:00 11:00 39°F   29.94 inHg Light breeze from east-northeast 5 mph
  11:00 17:00 64°F   29.91 inHg Light breeze from west-southwest 6 mph
  17:00 23:00 68°F   29.84 inHg Light breeze from west-southwest 4 mph
  23:00 05:00 54°F   29.88 inHg Light air from east-northeast 2 mph
      Temperature Precip Pressure Wind  
Thursday
05/30/2019
05:00 11:00 50°F   29.83 inHg Light breeze from east-northeast 7 mph
  11:00 17:00 72°F 0.04 in 29.85 inHg Light breeze from west-southwest 5 mph
How Close Are We To this Month's Temperature Record ?
Updated Tuesday, May 21, 2019- 2:55:00 PM

Current Temperature: 46.3°F

May's High: Temperature Record 86.5°F - Set on Tue, May 23, 2017 - 1:25:00 PM
We are currently 40.2°F Less than this Month's record High

May's Low: Temperature Record 37.2°F - Set on Mon, May 20, 2019 - 5:45:29 AM
We are currently 9.1°F More than this Month's record Low

Weather History For Tuesday, May 21, 2019


On this Day - In Weather History ...
Data courtesy of weatherforyou.com
powered by Cumulus v1.9.3 (1059)
Ambient Weather VWS v14.00
Top Contact Website Map Copyright © 2007 - 2019 Foresthillweather.com Never base important decisions on this or any weather information obtained from the Internet